Location: Koussan�
(15.2012°N, 12.5548°W)
Time: 12:31:54
(UTC+00:00)

SL-27 R/B - Pass Details

Date: 20 October 2020
Orbit: 419 x 469 km, 74.7° (Epoch: 26 November)

Event Time Altitude Azimuth Distance (km) Brightness Sun altitude
Rises 18:40:34 0° 360° (N) 2,460 6.0 -4.1°
Reaches altitude 10° 18:42:48 10° 10° (N) 1,577 5.0 -4.7°
Maximum altitude 18:45:58 33° 76° (ENE) 771 3.1 -5.4°
Drops below altitude 10° 18:49:04 10° 142° (SE) 1,548 4.8 -6.2°
Sets 18:51:14 0° 152° (SSE) 2,406 5.9 -6.7°
